Regional Weather Roundup
Issued by NWS

Home | Current Version | Previous Version | Text Only | Print | Product List | Glossary Off
Versions: 1 2 3 4 5 6 7 8 9 10 11 12 13 14 15 16 17 18 19 20 21 22 23 24 25 26 27 28 29 30 31 32 33 34 35 36 37 38 39 40 41 42 43 44 45 46 47 48 49 50

000
ASUS43 KDMX 181801
RWRIA

WEATHER ROUNDUP FOR IOWA
NATIONAL WEATHER SERVICE DES MOINES IA
1200 PM CST THU JAN 18 2018

NOTE: "FAIR" INDICATES FEW OR NO CLOUDS BELOW 12,000 FEET WITH NO
SIGNIFICANT WEATHER AND/OR OBSTRUCTIONS TO VISIBILITY.

* - THESE STATIONS ARE NOT NWS STATIONS...THUS NOT UNDER NWS
QUALITY CONTROL.  THEY ALSO DO NOT REPORT WEATHER SUCH
AS PRECIPITATION OR FOG.

IAZ001>003-012>014-020>022-031>034-043>046-181900-
   NORTHWEST IOWA

CITY           SKY/WX    TMP DP  RH WIND       PRES   REMARKS
CARROLL *      SUNNY     32  19  59 SW18G24   30.00F WCI  20
CHEROKEE *     SUNNY     35  22  58 S8        29.96F WCI  29
DENISON *      SUNNY     32  18  55 S12       30.02F WCI  23
LE MARS *      CLOUDY    36  21  55 S15       29.95F WCI  26
ORANGE CITY *  CLOUDY    36  27  69 SW16      29.92F WCI  26
SHELDON *      CLOUDY    34  23  64 SW13G18   29.89F WCI  25
SIOUX CITY     CLOUDY    34  22  61 S8        29.98F WCI  27
6HR MIN TEMP:  12; 6HR MAX TEMP:  34;

SPENCER        SUNNY     35  23  61 SW17      29.92F WCI  25
6HR MIN TEMP:  18; 6HR MAX TEMP:  35;

STORM LAKE *   MIX PCPN  34  21  60 SW14      29.95F WCI  24
$$

IAZ055>058-069>071-079>083-090>094-181900-
   SOUTHWEST IOWA

CITY           SKY/WX    TMP DP  RH WIND       PRES   REMARKS
ATLANTIC *     SUNNY     27  16  63 SW13      30.07F WCI  16
AUDUBON *      SUNNY     28  18  64 SW10G21   30.04F WCI  19
CLARINDA *     CLOUDY    28  16  59 SW10        N/A  WCI  19
COUNCIL BLFS * SUNNY     28  18  64 S10       30.05F WCI  19
CRESTON *      SUNNY     28  16  59 SW15      30.10F WCI  17
HARLAN  *      SUNNY     27  16  63 S16       30.07F WCI  14
LAMONI         CLOUDY    31  15  52 SW16      30.12S WCI  20
6HR MIN TEMP:  14; 6HR MAX TEMP:  31;

RED OAK *      SUNNY     30  16  55 SW14      30.10F WCI  20
SHENANDOAH *   SUNNY     30  18  59 S13       30.11F WCI  20
$$

IAZ047>049-059>061-072>074-084-181900-
   CENTRAL IOWA

CITY           SKY/WX    TMP DP  RH WIND       PRES   REMARKS
AMES           SUNNY     29  19  66 SW16      30.04F WCI  17
6HR MIN TEMP:  17; 6HR MAX TEMP:  29;

ANKENY *       SUNNY     32  14  47 SW14      30.07F WCI  22
BOONE *        SUNNY     30  18  59 SW15      30.00F WCI  19
CHARITON *     SUNNY     28  14  54 SW14G21   30.09F WCI  17
DES MOINES     MOSUNNY   31  15  52 SW12      30.07F WCI  22
6HR MIN TEMP:  18; 6HR MAX TEMP:  31;

GRINNELL*      SUNNY     28  16  61 SW16      30.08F WCI  16
KNOXVILLE *    SUNNY     30  14  51 SW14G20   30.08F WCI  20
MARSHALLTOWN   SUNNY     30  18  60 SW15      30.03F WCI  19
6HR MIN TEMP:  18; 6HR MAX TEMP:  30;

NEWTON *       SUNNY     28  16  59 SW15      30.07F WCI  17
PELLA *        SUNNY     31  14  49 SW8G16    30.11F WCI  24
$$

IAZ004>006-015-016-023>025-035-036-181900-
   NORTH CENTRAL IOWA

CITY           SKY/WX    TMP DP  RH WIND       PRES   REMARKS
ALGONA *       SUNNY     30  30 100 SW17      29.94F WCI  18
CLARION *      SUNNY     28  23  80 SW14G21   29.98F WCI  17
ESTHERVILLE    SUNNY     34  25  69 SW13      29.90F WCI  25
6HR MIN TEMP:  18; 6HR MAX TEMP:  34;

FORT DODGE *   SUNNY     32  19  58 SW14      29.99F WCI  22
MASON CITY     SUNNY     29  19  66 SW10      29.96F WCI  20
6HR MIN TEMP:  19; 6HR MAX TEMP:  29;

FOREST CITY *    N/A     30  23  74 SW12      29.94F WCI  21
WEBSTER CITY * SUNNY     28  19  69 SW10      29.99F WCI  19
IOWA FALLS *     N/A     29  19  66 SW13      30.03F WCI  18
$$

IAZ007>011-017>019-026>030-037>042-050>054-066-181900-
   NORTHEAST IOWA

CITY           SKY/WX    TMP DP  RH WIND       PRES   REMARKS
CEDAR RAPIDS     N/A     30  16  56 SW12      30.06F WCI  20
6HR MIN TEMP:  18; 6HR MAX TEMP:  30;

CHARLES CITY *   N/A     28  21  74 SW9G15    29.98F WCI  20
CLINTON *        N/A     29  18  63 SW21      30.08F WCI  16
DECORAH *        N/A     28  19  69 SW10G18   29.94F WCI  19
DUBUQUE          N/A     25  15  66 SW17      30.02F WCI  12
6HR MIN TEMP:  14; 6HR MAX TEMP:  25;

MONTICELLO *     N/A     30  18  59 SW12      30.05F WCI  21
OELWEIN *        N/A     28  21  74 SW14      30.01F WCI  17
WATERLOO         N/A     30  18  60 SW13      30.02F WCI  20
6HR MIN TEMP:  16; 6HR MAX TEMP:  30;

$$

IAZ064-065-067-068-078-181900-
   EAST CENTRAL IOWA

CITY           SKY/WX    TMP DP  RH WIND       PRES   REMARKS
DAVENPORT        N/A     29  15  56 W13       30.12F WCI  19
6HR MIN TEMP:  18; 6HR MAX TEMP:  29;

IOWA CITY        N/A     29  14  53 SW10      30.12F WCI  20
6HR MIN TEMP:  16; 6HR MAX TEMP:  29;

MT. PLEASANT * SUNNY     30  18  59 SW17G23   30.12F WCI  18
MUSCATINE *      N/A     30  16  55 SW12      30.13F WCI  21
QUAD CITIES      N/A     29  15  56 SW10      30.11F WCI  20
6HR MIN TEMP:  18; 6HR MAX TEMP:  29;

$$

IAZ062-063-075>077-085>089-095>099-181900-
   SOUTHEAST IOWA

CITY           SKY/WX    TMP DP  RH WIND       PRES   REMARKS
BURLINGTON     MOSUNNY   28  15  58 SW17      30.13F WCI  16
6HR MIN TEMP:  16; 6HR MAX TEMP:  29;

FAIRFIELD *    SUNNY     30  16  55 SW13G18   30.11F WCI  20
FORT MADISON * MOSUNNY   28  14  54 SW14G22   30.14F WCI  17
KEOKUK *       MOSUNNY   32  14  47 SW20      30.13F WCI  20
OSKALOOSA *      N/A     30  17  59 SW12      30.10F WCI  21
OTTUMWA        SUNNY     32  15  49 SW13      30.10F WCI  22
6HR MIN TEMP:  17; 6HR MAX TEMP:  32;

WASHINGTON *   SUNNY     30  18  59 SW10      30.12S WCI  21
$$

ABBREVIATIONS USED IN REMARKS
   TC - TEMPERATURES IN CELSIUS
  WCI - WIND CHILL INDEX
   HX - HEAT INDEX
  VSB - VISIBILITY
$$




USA.gov is the U.S. government's official web portal to all federal, state and local government web resources and services.